Wind_Speed
16 18 21 22 23 26 29 30 32 33 34 34 36 37 37 36 35 33 31 31 31 30 29 29 28 27 26 25 24 23 22 20 19 20 20 21 22 23 24 24 25 25 26 26
17 20 21 20 21 24 27 28 30 31 31 31 33 33 33 33 32 31 30 30 28 27 27 26 25 24 23 22 20 19 18 18 17 16 16 16 18 19 19 20 21 21 22 22
18 21 22 21 23 25 26 26 28 29 29 29 31 31 31 30 30 30 29 28 26 25 25 24 23 22 20 19 18 17 17 16 15 15 15 16 16 15 15 16 17 17 18 18
22 23 22 23 26 27 28 27 28 29 29 30 31 31 30 30 29 28 27 26 25 24 23 22 21 20 18 18 17 15 14 13 13 13 13 13 12 12 11 12 13 13 14 15
26 27 25 24 27 29 30 28 29 30 31 31 32 32 31 31 29 28 27 26 25 24 23 21 20 18 17 16 15 14 12 11 11 10 10 11 11 11 11 11 12 12 13 13
30 31 31 31 32 31 32 30 31 31 32 33 34 33 32 32 30 29 28 27 25 24 22 20 18 17 15 14 13 12 11 11 10 10 10 11 11 11 11 11 11 11 12 12
33 33 34 35 34 33 34 35 35 34 34 35 36 35 34 34 31 29 28 27 26 24 22 20 18 16 14 13 12 11 11 10 10 10 10 11 11 10 10 11 11 11 11 11
35 35 37 37 36 37 38 38 37 38 38 38 37 36 36 35 33 31 28 27 26 24 23 21 19 17 15 13 12 11 10 10 10 9 10 10 9 10 10 10 11 10 10 10
36 36 38 39 39 40 41 42 41 41 40 40 39 38 37 36 34 32 30 27 26 26 24 23 21 18 16 14 13 12 11 10 9 8 8 9 9 10 11 11 10 10 10 10
38 39 40 41 43 44 44 43 43 43 42 41 40 39 37 36 35 33 31 28 27 27 26 24 22 20 17 15 14 13 12 11 10 9 8 9 9 10 10 11 11 11 11 11
42 43 44 45 46 47 46 46 45 44 43 42 41 39 37 36 35 33 31 29 27 27 27 26 25 23 20 18 16 14 13 12 11 11 10 10 10 10 11 12 12 12 12 13
46 48 49 50 51 51 50 49 47 46 44 43 42 40 38 36 35 33 31 30 28 28 28 27 27 25 23 21 18 17 16 15 14 13 12 12 12 12 12 12 13 13 13 14
51 52 53 54 54 53 52 50 49 47 46 44 42 40 39 37 35 34 32 30 29 28 28 28 28 27 26 24 22 20 19 19 18 17 16 15 15 15 14 14 14 15 15 16
54 53 53 53 53 53 52 51 50 48 46 45 44 42 40 39 36 34 32 31 30 29 28 28 28 28 28 28 26 25 23 22 21 20 20 19 18 18 17 17 17 17 17 17
54 55 54 54 53 53 54 53 51 50 49 48 46 44 44 42 39 37 34 33 32 30 28 28 28 29 29 29 28 28 27 26 25 24 23 22 22 21 21 20 20 19 19 18
57 57 57 58 58 58 58 57 56 55 53 52 50 47 46 44 41 40 36 35 34 31 29 29 28 29 30 29 28 28 28 28 28 27 26 26 25 24 24 23 23 22 21 20
60 60 61 63 64 63 63 62 62 62 59 56 53 51 49 45 41 41 39 37 35 34 33 31 30 29 28 28 28 27 28 29 29 29 28 28 27 27 26 26 25 24 24 22
63 63 65 66 67 65 61 60 60 60 60 59 57 55 52 47 43 40 40 40 38 36 34 32 31 30 28 28 28 28 27 27 27 27 27 27 27 28 28 28 27 27 26 25
64 65 65 64 64 64 62 60 58 56 56 55 56 56 54 50 46 44 41 40 40 38 36 34 33 31 29 26 26 26 25 24 24 24 25 26 26 26 27 28 29 28 28 27
60 59 59 58 57 56 54 51 50 48 47 48 49 50 50 50 49 47 44 42 42 41 40 38 35 32 30 28 26 24 23 23 22 22 22 22 23 23 24 26 27 28 28 28
53 52 51 49 48 46 45 45 44 42 40 40 41 41 43 44 45 45 45 44 43 43 43 42 37 34 32 30 28 26 25 23 22 21 21 21 21 21 21 23 24 26 27 27
48 47 46 44 44 42 41 41 41 39 37 36 36 36 37 39 42 44 45 44 44 45 44 42 40 36 34 32 31 29 27 25 24 23 22 21 21 20 20 21 22 23 25 26
45 44 43 42 42 41 40 40 39 38 36 34 32 30 31 33 37 41 43 44 44 44 44 42 39 37 35 34 32 29 27 26 25 24 23 22 21 21 21 21 21 21 22 24
42 41 41 40 40 40 40 40 38 36 34 32 30 27 25 26 30 36 41 42 44 44 44 44 41 38 35 33 31 29 27 26 25 25 24 23 22 21 21 21 21 21 21 21
39 39 39 39 39 40 40 38 36 35 33 31 27 24 21 21 26 30 36 40 42 43 43 44 43 40 37 34 32 29 27 26 25 24 24 24 23 22 21 21 20 20 20 20
38 38 39 39 39 39 38 37 35 33 32 29 26 23 20 18 21 27 33 37 39 40 41 42 42 40 37 34 33 31 29 27 26 25 25 24 23 22 22 21 20 19 19 20
36 36 36 36 35 35 35 36 36 33 31 29 26 22 19 16 17 23 30 35 38 40 40 40 39 37 36 34 31 29 28 27 26 25 25 25 25 24 23 21 21 20 19 19
Wind_Direction
311 305 303 304 301 297 297 298 297 299 297 298 294 291 289 287 286 285 286 289 292 297 302 306 308 310 309 307 303 297 291 288 279 272 266 257 249 247 246 244 243 245 249 254
319 311 312 313 305 300 301 303 303 303 303 302 300 299 295 291 288 285 285 288 291 295 301 305 308 310 310 310 306 303 298 292 282 275 273 264 258 254 248 246 245 248 252 256
320 315 317 315 308 306 307 308 306 304 305 305 305 305 302 296 291 288 285 286 288 292 298 303 307 310 310 311 307 303 298 290 283 276 275 274 268 261 258 254 251 253 258 261
318 316 316 314 310 309 310 312 308 306 307 307 308 308 306 301 297 293 287 286 286 287 292 299 303 306 309 308 306 303 298 290 284 278 274 274 273 272 267 265 261 259 262 264
317 316 319 312 309 311 312 313 306 306 307 306 306 308 307 303 299 295 290 286 285 284 286 292 297 300 305 305 305 306 303 295 287 282 276 271 267 270 268 264 262 260 258 260
317 317 317 315 313 313 310 309 305 305 304 303 304 305 305 303 299 295 290 287 283 280 280 283 289 294 298 300 298 298 296 291 283 276 272 265 260 261 260 257 254 251 250 252
313 314 315 313 312 311 308 305 304 304 301 300 300 301 301 299 298 294 289 284 279 274 274 276 279 284 289 291 290 288 287 284 278 269 263 256 253 253 251 247 245 243 245 248
315 315 312 311 310 307 303 301 302 300 299 298 298 298 298 297 296 293 289 282 276 269 268 270 272 275 278 280 281 281 279 277 273 264 254 248 243 242 240 239 239 241 243 244
312 310 307 307 305 302 301 300 300 298 297 296 295 295 294 294 293 292 289 281 274 266 262 263 264 266 270 271 271 271 270 269 266 260 252 243 238 236 236 235 234 238 243 249
306 305 304 303 301 300 299 298 297 295 294 293 292 292 292 291 290 290 288 281 271 265 259 257 257 258 261 264 264 262 260 258 254 250 244 237 232 231 232 235 239 243 250 255
304 303 303 301 300 299 298 297 296 294 292 290 289 288 287 286 286 285 285 279 272 265 258 253 252 252 253 255 257 255 253 250 247 244 239 235 233 232 235 239 244 248 253 257
304 303 302 300 299 298 297 296 295 293 292 290 288 286 284 282 280 279 280 277 272 264 257 252 249 247 247 249 250 250 249 248 246 244 242 240 239 239 240 243 246 251 256 260
304 302 301 299 297 296 294 293 291 290 289 288 285 283 282 278 276 273 274 274 270 265 258 252 246 244 244 245 246 247 247 246 246 245 245 244 244 245 246 248 250 253 257 260
303 301 300 298 295 293 292 289 287 286 285 285 283 279 278 275 272 269 267 267 265 262 258 251 245 244 244 243 244 246 246 246 246 247 247 248 248 248 249 250 252 255 257 259
304 302 300 298 294 292 289 286 284 283 282 281 280 278 274 272 269 267 264 260 259 259 257 251 245 245 245 245 245 245 245 246 247 249 250 250 250 250 251 252 253 255 258 260
307 304 301 297 294 290 287 284 281 279 279 279 276 275 273 270 265 264 260 255 252 253 253 252 248 245 244 244 244 245 245 246 247 249 250 251 251 252 252 253 254 256 257 259
305 300 296 293 291 289 287 285 283 280 278 276 273 271 269 267 264 259 255 252 247 246 246 247 247 247 245 244 244 245 245 246 247 248 249 251 252 253 254 255 255 256 258 259
302 299 296 294 293 293 293 293 289 286 282 277 271 268 266 266 261 257 253 249 244 241 241 243 245 247 248 248 247 246 245 245 246 246 247 249 252 254 255 256 258 258 258 258
303 302 302 302 301 301 301 300 298 294 289 282 276 269 265 261 257 253 252 247 241 239 239 240 242 243 244 245 245 244 244 244 244 245 247 249 250 253 255 257 259 260 259 258
309 309 309 308 308 307 306 305 302 300 297 289 280 274 268 262 257 250 247 242 238 235 234 235 236 237 238 239 240 240 240 241 241 243 246 248 250 253 255 257 259 261 262 260
317 317 317 316 315 315 314 313 311 307 302 296 288 277 270 263 256 248 242 238 235 231 231 232 233 235 235 235 236 237 238 239 240 242 244 247 249 253 257 259 260 262 263 262
323 324 324 323 322 321 319 317 315 314 310 305 297 285 273 263 255 247 241 238 234 230 228 228 228 229 232 233 235 236 236 237 239 242 244 247 249 252 257 261 263 264 264 264
327 328 328 327 327 326 325 323 320 317 314 312 305 293 277 264 254 247 241 237 231 226 225 223 223 225 228 232 234 235 236 237 240 242 244 246 249 252 257 261 265 266 266 265
330 332 333 332 331 330 329 328 325 323 319 314 310 300 282 263 251 244 238 234 230 227 225 224 223 226 229 231 232 233 235 237 239 242 243 245 249 253 257 260 264 266 266 265
332 333 335 335 335 335 335 334 332 329 325 321 313 306 293 268 248 237 233 230 229 227 225 223 223 224 227 228 230 232 234 236 238 241 242 243 247 252 255 258 262 265 266 265
332 333 334 336 338 339 340 339 338 336 332 329 321 309 299 280 251 233 228 225 224 222 221 220 220 222 226 228 230 231 233 234 237 239 240 242 246 250 253 255 258 262 265 265
332 332 334 337 340 343 344 344 344 343 340 337 334 323 305 286 256 230 220 217 217 216 215 215 216 219 223 225 226 227 230 233 235 238 240 242 244 247 248 250 254 259 262 264
Height
5822 5819 5816 5813 5811 5807 5803 5800 5797 5794 5790 5788 5783 5778 5775 5773 5770 5768 5766 5763 5759 5755 5751 5745 5740 5735 5731 5727 5723 5720 5717 5715 5713 5713 5713 5713 5714 5716 5717 5720 5723 5726 5728 5731
5818 5814 5811 5808 5805 5801 5797 5793 5789 5786 5783 5779 5773 5770 5766 5763 5761 5759 5757 5754 5751 5747 5743 5739 5734 5729 5725 5722 5718 5715 5713 5711 5710 5709 5709 5709 5710 5711 5713 5714 5717 5719 5722 5724
5814 5809 5806 5803 5800 5795 5791 5788 5783 5778 5776 5771 5766 5762 5758 5755 5752 5750 5748 5745 5743 5740 5736 5733 5728 5724 5721 5717 5715 5712 5710 5708 5707 5706 5706 5706 5707 5707 5708 5710 5712 5714 5716 5718
5808 5806 5803 5801 5793 5790 5786 5783 5777 5771 5768 5763 5759 5755 5751 5747 5744 5741 5739 5737 5735 5732 5730 5727 5723 5720 5717 5714 5711 5709 5707 5705 5704 5704 5703 5703 5704 5705 5705 5707 5708 5710 5711 5713
5803 5799 5797 5794 5788 5783 5779 5776 5770 5765 5761 5756 5752 5748 5744 5739 5736 5734 5731 5729 5727 5725 5723 5720 5718 5715 5712 5710 5708 5706 5704 5702 5701 5701 5701 5701 5701 5702 5702 5703 5705 5706 5707 5709
5796 5792 5790 5788 5781 5776 5773 5769 5763 5759 5754 5749 5745 5741 5738 5732 5729 5725 5723 5721 5719 5718 5716 5714 5712 5710 5708 5706 5704 5702 5701 5699 5698 5698 5698 5698 5698 5699 5699 5700 5701 5702 5704 5705
5790 5786 5782 5778 5773 5769 5766 5762 5755 5751 5746 5742 5737 5734 5730 5725 5721 5717 5715 5713 5711 5710 5709 5708 5707 5705 5703 5702 5701 5699 5698 5696 5695 5695 5695 5695 5695 5696 5696 5697 5698 5699 5700 5701
5783 5779 5777 5769 5764 5760 5756 5750 5746 5741 5737 5732 5728 5724 5720 5716 5712 5709 5707 5705 5703 5702 5702 5702 5701 5700 5699 5698 5696 5695 5694 5693 5692 5692 5692 5692 5692 5693 5694 5695 5695 5696 5697 5698
5776 5773 5766 5760 5754 5749 5743 5739 5735 5731 5727 5722 5718 5715 5711 5707 5703 5700 5698 5696 5695 5694 5694 5695 5695 5694 5694 5693 5692 5691 5691 5690 5689 5689 5689 5689 5690 5690 5691 5692 5693 5694 5694 5695
5765 5761 5755 5749 5743 5738 5732 5728 5723 5719 5714 5710 5707 5704 5700 5697 5694 5691 5689 5687 5686 5686 5686 5687 5687 5688 5688 5688 5687 5687 5687 5686 5686 5686 5686 5686 5687 5687 5688 5689 5690 5690 5691 5691
5755 5749 5744 5738 5731 5726 5721 5715 5710 5706 5702 5698 5694 5692 5689 5686 5684 5681 5679 5678 5677 5677 5677 5678 5680 5681 5681 5682 5682 5682 5682 5682 5682 5682 5683 5683 5684 5684 5685 5686 5687 5687 5687 5687
5743 5736 5730 5724 5718 5712 5706 5701 5696 5692 5688 5685 5681 5678 5676 5674 5672 5671 5669 5668 5668 5667 5668 5669 5671 5672 5674 5675 5676 5676 5677 5677 5678 5678 5679 5679 5680 5680 5681 5682 5682 5683 5683 5683
5728 5721 5714 5708 5702 5696 5690 5685 5681 5676 5673 5670 5667 5664 5663 5661 5660 5659 5658 5658 5658 5658 5658 5659 5661 5663 5665 5667 5669 5670 5671 5672 5673 5673 5674 5675 5675 5676 5676 5677 5677 5678 5678 5678
5713 5706 5699 5692 5685 5679 5673 5669 5664 5660 5656 5654 5652 5650 5648 5647 5647 5647 5647 5647 5647 5648 5648 5649 5652 5654 5656 5658 5660 5662 5663 5665 5666 5667 5668 5669 5670 5670 5671 5672 5672 5672 5673 5673
5696 5688 5681 5674 5667 5661 5655 5650 5646 5643 5639 5637 5635 5633 5633 5632 5632 5633 5634 5634 5636 5637 5638 5640 5642 5644 5646 5649 5651 5653 5655 5657 5658 5660 5661 5662 5663 5664 5665 5665 5666 5666 5667 5667
5679 5670 5662 5654 5647 5641 5635 5630 5626 5623 5620 5618 5617 5616 5615 5615 5616 5618 5619 5621 5624 5626 5628 5630 5632 5634 5637 5639 5641 5643 5645 5648 5650 5652 5653 5655 5656 5657 5658 5659 5660 5660 5661 5661
5660 5652 5644 5636 5628 5620 5613 5607 5602 5599 5597 5597 5597 5597 5597 5598 5599 5602 5605 5607 5610 5614 5617 5620 5622 5624 5627 5629 5631 5634 5636 5638 5640 5642 5645 5646 5648 5650 5651 5652 5653 5653 5654 5655
5640 5631 5622 5614 5606 5598 5591 5585 5579 5575 5573 5573 5574 5576 5577 5579 5582 5585 5589 5592 5596 5600 5604 5608 5611 5614 5618 5620 5622 5624 5627 5629 5631 5633 5635 5638 5640 5641 5643 5644 5645 5646 5647 5647
5623 5612 5603 5593 5585 5577 5570 5565 5559 5554 5551 5549 5549 5552 5555 5559 5564 5568 5573 5577 5581 5587 5592 5596 5600 5604 5608 5611 5613 5616 5618 5620 5623 5625 5627 5629 5631 5633 5634 5636 5637 5638 5639 5640
5606 5596 5586 5577 5568 5560 5553 5547 5541 5536 5532 5529 5529 5531 5534 5538 5544 5550 5556 5562 5567 5573 5578 5583 5588 5593 5598 5602 5605 5607 5610 5613 5615 5617 5619 5621 5623 5625 5626 5627 5628 5629 5630 5631
5592 5582 5572 5563 5555 5547 5540 5533 5527 5522 5518 5514 5512 5512 5515 5520 5525 5532 5539 5545 5552 5558 5565 5571 5577 5583 5588 5592 5596 5599 5602 5605 5608 5610 5612 5614 5616 5618 5619 5620 5620 5621 5622 5623
5580 5571 5561 5553 5544 5537 5530 5523 5516 5511 5506 5501 5498 5497 5498 5503 5508 5515 5523 5530 5537 5544 5551 5558 5566 5572 5577 5582 5586 5590 5594 5598 5600 5603 5605 5607 5609 5610 5612 5612 5613 5613 5614 5615
5570 5561 5552 5544 5536 5529 5522 5514 5507 5501 5496 5491 5487 5484 5484 5487 5492 5499 5508 5516 5523 5530 5538 5546 5553 5560 5566 5572 5577 5582 5586 5590 5593 5596 5598 5600 5602 5603 5604 5605 5606 5606 5607 5607
5562 5554 5545 5537 5529 5522 5514 5507 5499 5492 5487 5482 5478 5474 5473 5474 5479 5485 5493 5502 5510 5518 5527 5535 5543 5550 5556 5562 5568 5573 5578 5582 5585 5588 5590 5592 5594 5596 5597 5598 5599 5599 5600 5600
5556 5548 5541 5532 5524 5516 5508 5500 5493 5486 5479 5474 5469 5466 5464 5464 5467 5473 5480 5488 5498 5506 5516 5525 5533 5540 5546 5553 5559 5564 5569 5573 5577 5580 5583 5585 5587 5589 5590 5591 5592 5593 5593 5594
5550 5543 5536 5528 5519 5511 5503 5495 5487 5480 5473 5467 5462 5458 5456 5455 5457 5461 5468 5477 5486 5496 5505 5514 5523 5530 5538 5544 5551 5556 5561 5565 5569 5572 5575 5577 5580 5582 5583 5585 5585 5586 5587 5588
5546 5539 5531 5524 5516 5508 5500 5491 5483 5476 5469 5462 5456 5452 5449 5448 5448 5451 5457 5466 5475 5485 5495 5505 5514 5522 5529 5536 5542 5547 5552 5557 5560 5564 5567 5570 5572 5574 5576 5578 5579 5580 5581 5582